This is the latest recevied weather packets stored in our database for station/object KC5AV. If no packets are shown the sender has not sent any weather packets the latest 10 day(s).
| Time | Temp. | Humidity | Pressure | Rain* | Wind** | Luminosity | Snow |
|---|---|---|---|---|---|---|---|
| 1777638351 | 11.67° C | 96% | 1017.6 hPa | 1.78 mm | - | 6 W/m² | - |
| 1777638047 | 11.67° C | 96% | 1017.5 hPa | 1.27 mm | - | 6 W/m² | - |
| 1777637744 | 11.67° C | 96% | 1017.4 hPa | 1.78 mm | - | 5 W/m² | - |
| 1777637440 | 11.67° C | 96% | 1017.3 hPa | 1.78 mm | - | 5 W/m² | - |
| 1777637138 | 11.67° C | 96% | 1017.2 hPa | 1.78 mm | - | 4 W/m² | - |
| 1777636833 | 11.67° C | 95% | 1017.2 hPa | 1.78 mm | - | 3 W/m² | - |
| 1777636529 | 11.67° C | 95% | 1016.8 hPa | 1.27 mm | - | 2 W/m² | - |
| 1777636226 | 12.22° C | 95% | 1016.6 hPa | 1.27 mm | - | 1 W/m² | - |
| 1777635921 | 12.22° C | 95% | 1016.6 hPa | 1.27 mm | - | 1 W/m² | - |
| 1777635616 | 12.22° C | 95% | 1016.8 hPa | 1.78 mm | - | 1 W/m² | - |
| 1777634490 | 12.78° C | 92% | 1016.1 hPa | 3.05 mm | - | 0 W/m² | - |
| 1777634187 | 12.78° C | 92% | 1016.1 hPa | 3.05 mm | - | 0 W/m² | - |
| 1777633883 | 12.78° C | 91% | 1016.3 hPa | 1.78 mm | - | 0 W/m² | - |
| 1777633581 | 12.78° C | 90% | 1016.3 hPa | 1.27 mm | - | 0 W/m² | - |
| 1777633279 | 13.33° C | 89% | 1016.2 hPa | 1.27 mm | - | 0 W/m² | - |
| 1777632976 | 13.33° C | 88% | 1016.2 hPa | 0 mm | - | 0 W/m² | - |
| 1777632672 | 13.33° C | 88% | 1016.2 hPa | 0 mm | - | 0 W/m² | - |
| 1777632369 | 13.33° C | 87% | 1016.4 hPa | 0 mm | - | 0 W/m² | - |
| 1777632066 | 13.33° C | 87% | 1016.1 hPa | 0 mm | - | 0 W/m² | - |
| 1777631764 | 13.33° C | 87% | 1016.2 hPa | 0 mm | - | 0 W/m² | - |
| 1777631461 | 13.33° C | 86% | 1016.1 hPa | 0 mm | - | 0 W/m² | - |
| 1777631158 | 13.33° C | 86% | 1016.1 hPa | 0 mm | - | 0 W/m² | - |
| 1777630855 | 13.33° C | 85% | 1015.8 hPa | 0 mm | - | 0 W/m² | - |
| 1777630551 | 13.33° C | 85% | 1015.9 hPa | 0 mm | - | 0 W/m² | - |
| 1777630248 | 13.33° C | 85% | 1016.1 hPa | 0 mm | - | 0 W/m² | - |
* Rain latest hour (hover to see other rain measurements)
** Current wind speed in m/s (hover to see current wind gust speed)